Wind_Speed
32 32 30 29 27 25 24 23 22 21 20 19 18 16 15 14 14 14 14 14 14 14 15 15 15 14 14 13 12 11 10 9 7 8 12 12 9 10 10 6 15 20 25 23 20 21 18 16 16 16 13 9 8 7 8 8 6 4 4 5 4 3 0 3 4 5 3 4 7 8 10 8 9 9 6 6 7 8 9 6 6 6 4 6 13 24 29 32
33 33 32 30 28 26 25 24 22 21 20 19 17 16 15 14 14 14 15 14 14 13 14 15 15 14 14 11 10 9 8 8 10 13 13 8 8 7 10 11 17 24 28 24 25 25 20 18 18 17 11 7 7 8 8 7 7 6 4 5 4 1 3 4 4 4 4 3 5 7 9 7 8 10 8 8 9 10 9 8 8 9 9 10 17 26 29 32
34 34 33 32 30 27 25 24 23 21 20 19 17 16 15 14 14 14 15 14 13 13 13 14 15 15 13 10 8 7 7 9 10 7 4 8 13 9 7 16 21 28 29 24 26 25 20 19 20 17 11 8 7 8 9 7 7 7 6 5 3 0 2 2 2 3 4 3 3 6 6 6 7 9 8 8 9 11 9 9 10 11 12 14 18 25 30 31
35 34 34 33 31 29 27 25 23 21 20 19 17 16 15 14 14 14 15 14 13 13 14 15 15 15 12 9 6 5 7 8 3 4 3 13 15 9 8 20 25 30 27 21 23 21 18 17 18 15 10 8 7 8 9 8 7 6 7 6 1 1 2 3 2 4 4 2 2 4 6 6 6 7 8 8 8 8 8 9 11 12 16 17 19 24 29 30
35 35 35 34 32 30 27 25 23 21 20 18 17 16 15 15 14 15 15 15 14 15 16 16 16 13 10 7 4 3 6 4 2 6 12 15 12 6 13 24 30 31 23 19 21 19 17 17 16 13 9 8 8 8 10 11 8 6 8 8 3 2 2 4 3 4 5 2 3 3 5 5 6 7 8 8 6 2 4 10 10 13 18 20 22 24 27 27
36 36 36 35 33 30 28 25 23 21 19 18 17 17 16 15 15 15 16 17 16 16 17 16 13 10 7 5 3 3 7 1 4 11 18 11 7 4 18 30 32 27 20 20 20 17 17 17 15 12 9 9 10 10 10 12 11 7 7 9 6 6 4 2 2 1 2 1 1 2 2 3 6 7 7 8 6 3 3 9 12 15 19 21 23 24 25 25
36 36 36 36 33 31 28 25 22 20 18 17 17 17 17 16 16 16 18 19 17 17 17 14 9 5 5 4 1 5 8 2 5 13 20 15 7 6 25 34 32 24 20 22 20 17 17 17 16 12 10 10 11 12 8 9 12 10 8 7 6 7 7 5 4 4 4 3 2 1 1 5 7 7 6 9 9 2 5 9 13 16 20 22 23 23 23 24
36 36 36 36 34 32 29 25 22 20 17 16 16 17 17 18 18 18 19 19 18 17 14 8 3 2 3 2 4 6 5 1 7 13 19 17 7 15 29 30 28 23 22 24 21 19 18 18 17 12 11 10 9 11 8 8 12 13 11 7 5 7 7 7 6 6 6 4 4 4 5 6 7 6 6 9 9 5 7 11 15 17 20 21 22 23 22 22
36 36 36 36 35 32 29 25 22 19 16 15 17 18 18 18 18 18 19 19 17 13 7 2 1 2 2 2 7 6 1 4 4 11 15 11 6 18 25 25 26 23 21 23 21 21 17 15 18 13 10 10 9 10 10 9 8 11 14 11 7 8 7 6 7 8 8 6 5 6 7 7 7 7 6 9 9 9 10 13 16 17 18 19 20 22 22 22
36 36 36 36 35 32 29 25 22 19 16 16 18 19 19 19 18 18 17 15 11 4 1 0 1 2 1 4 8 4 4 4 2 9 12 7 8 15 18 21 26 23 20 21 21 21 16 14 17 12 7 8 9 9 11 11 5 3 9 12 11 12 10 9 10 10 9 8 8 9 9 7 7 7 6 8 11 12 13 14 16 17 17 18 19 20 21 22
36 36 36 36 34 32 28 24 21 18 17 18 19 20 21 20 17 14 11 8 4 2 1 1 1 0 4 6 7 3 4 4 5 8 7 3 6 13 15 17 24 23 20 19 20 22 19 15 14 9 4 4 7 9 11 12 9 4 5 8 11 13 12 13 13 12 10 8 9 10 10 9 7 8 7 7 13 14 14 15 17 17 16 17 18 19 18 19
36 36 36 36 35 32 27 23 20 17 18 19 20 21 21 17 12 8 5 4 4 4 3 2 1 2 7 7 5 3 5 5 5 6 4 1 4 11 12 14 21 21 17 16 18 21 20 15 14 12 5 1 5 7 7 10 11 9 8 10 11 11 12 14 14 13 11 8 8 8 8 10 10 12 10 9 15 15 15 16 16 16 15 16 17 17 15 18
35 35 35 36 35 32 27 22 18 17 18 19 21 21 17 11 7 3 3 4 8 9 5 3 2 4 7 4 1 3 3 3 3 5 4 2 3 8 10 12 18 17 15 15 16 19 18 14 15 15 7 3 5 2 3 7 10 10 10 10 10 10 11 14 14 14 13 10 8 7 7 8 12 14 12 13 16 15 15 15 15 15 14 15 16 15 15 18
35 35 35 35 34 31 26 20 17 17 18 20 21 17 12 9 4 2 3 5 12 9 3 2 2 4 7 1 3 2 2 2 2 4 5 1 3 7 9 12 15 13 12 14 13 16 15 12 14 14 8 7 5 1 4 6 6 10 11 9 8 8 9 11 13 15 14 11 11 10 7 6 9 13 14 15 17 17 16 16 16 15 14 14 15 15 16 18
35 35 35 35 34 29 24 19 16 17 19 21 19 12 11 7 1 3 3 7 14 6 1 1 3 5 5 2 3 1 3 3 2 4 5 0 3 6 10 13 15 10 9 11 11 12 12 11 12 10 9 9 7 5 7 7 5 8 9 9 10 9 8 9 11 14 14 11 13 13 7 5 7 12 15 15 16 17 16 16 17 16 16 16 15 15 15 17
35 35 35 35 33 27 22 17 14 17 18 20 16 10 11 5 2 2 1 10 13 3 3 1 3 5 5 2 2 3 2 5 6 5 2 3 1 4 10 13 14 11 10 10 9 10 11 10 10 9 8 9 8 8 7 7 7 8 9 10 11 11 10 8 11 14 14 10 13 15 8 6 7 11 14 15 16 17 15 16 18 17 17 17 15 15 14 16
35 35 35 35 33 26 20 15 13 16 18 18 14 8 10 4 3 2 2 10 9 1 2 3 3 5 4 2 0 3 8 10 8 5 4 4 3 5 11 12 13 12 11 11 10 11 11 10 8 8 9 8 8 9 8 9 9 8 9 10 11 14 12 9 10 12 15 12 12 15 12 9 7 10 12 14 15 16 14 15 18 17 16 16 15 15 15 16
34 34 34 35 32 25 19 15 13 15 18 18 11 6 9 5 2 1 5 6 3 4 5 4 3 4 2 3 6 10 14 13 9 6 6 6 7 10 12 12 12 13 12 10 11 12 10 9 8 8 9 9 10 10 10 10 9 11 11 10 11 12 12 13 8 8 14 15 13 15 13 13 11 9 11 13 14 14 14 14 15 16 16 16 15 15 16 17
34 34 34 34 31 24 17 14 12 14 18 17 9 4 5 3 2 4 5 4 2 2 2 1 2 2 3 7 10 14 15 12 7 2 3 6 10 12 12 11 12 14 12 9 12 13 10 8 9 10 11 13 14 14 13 8 5 11 13 11 12 11 11 14 8 5 10 12 13 15 13 14 15 12 11 11 13 13 13 13 13 14 15 15 15 15 16 17
34 33 34 32 29 23 16 13 11 12 17 17 10 5 2 3 2 3 5 5 2 3 4 4 4 4 6 8 10 15 12 5 1 3 4 7 13 15 11 10 12 12 11 10 12 13 11 9 11 13 14 16 16 16 16 9 3 8 11 10 13 11 10 14 12 6 6 7 11 15 14 14 15 14 13 11 12 13 13 13 13 14 14 15 16 16 17 17
34 33 33 30 27 22 14 11 11 9 14 16 10 5 4 7 5 3 7 5 1 3 5 4 4 5 6 8 9 13 9 2 6 7 5 8 14 14 10 11 12 10 11 11 11 11 11 11 14 17 15 13 15 16 16 13 8 7 9 8 10 11 9 13 11 6 6 7 9 13 14 15 15 15 14 12 13 13 13 14 15 16 15 14 16 17 17 15
33 31 32 28 24 21 13 8 10 8 10 12 9 8 7 6 5 4 6 5 1 2 4 3 4 4 5 4 4 9 7 1 6 9 6 6 12 11 9 12 11 10 12 12 10 10 11 13 17 17 14 11 12 14 16 16 12 8 8 7 8 9 10 11 9 6 6 6 9 12 12 13 15 16 15 13 13 12 13 14 14 16 16 15 16 16 16 15
32 30 31 28 22 20 11 5 10 9 7 9 9 10 6 5 6 5 5 6 3 2 2 2 2 4 6 2 3 9 6 1 3 6 5 5 10 8 7 12 12 10 13 14 12 10 10 13 17 15 13 13 11 12 15 14 11 10 9 8 8 9 10 10 10 9 8 7 9 12 11 11 12 14 15 13 13 12 12 14 14 15 16 16 16 16 17 18
32 31 31 28 20 18 10 2 7 8 5 5 7 8 6 6 6 4 5 5 2 3 1 2 2 5 8 3 4 8 2 2 3 4 4 5 6 4 7 11 12 11 12 16 16 14 11 8 11 16 15 15 13 12 13 11 9 11 12 11 9 9 12 10 5 5 8 9 11 11 9 9 12 14 14 12 13 13 12 13 13 14 15 15 16 17 18 19
32 31 30 27 19 15 9 4 3 7 3 0 5 7 7 7 5 5 5 4 2 4 4 1 1 4 7 5 4 6 2 1 2 3 4 5 3 3 7 8 9 11 13 17 16 14 13 6 6 14 15 14 15 13 13 12 8 11 14 15 13 10 11 11 6 4 7 10 12 13 10 9 12 17 16 13 13 15 12 12 14 14 14 14 15 16 17 18
33 31 30 26 17 13 8 3 4 8 4 0 7 12 9 7 4 6 5 4 3 4 4 2 1 4 7 5 6 5 4 1 3 1 3 3 4 6 6 6 7 10 11 14 12 9 11 10 9 13 15 15 16 13 14 14 9 8 10 15 18 14 10 10 10 8 7 8 9 11 11 9 10 16 18 17 16 15 14 13 15 14 14 15 14 15 16 18
33 31 30 24 14 11 7 3 7 9 3 4 12 14 9 7 4 7 4 5 3 2 1 1 2 5 7 6 9 5 2 4 2 1 4 3 4 5 7 7 7 9 8 8 8 7 11 13 12 13 15 14 14 12 14 15 11 8 6 9 16 18 15 13 11 9 8 8 6 8 10 10 9 12 14 18 19 17 16 15 15 15 15 16 15 16 17 18
32 30 29 21 8 5 6 5 8 6 5 11 15 13 9 4 6 7 5 4 2 2 1 3 2 5 6 5 7 4 2 7 4 2 6 2 4 4 9 11 9 10 10 9 9 8 12 16 14 14 14 11 11 12 14 16 13 10 4 3 9 15 18 16 12 10 9 9 10 10 11 9 9 10 10 14 17 17 18 17 15 15 17 17 16 17 18 18
31 29 26 16 4 3 6 6 6 6 10 14 15 12 6 3 7 5 5 3 2 3 1 2 1 4 7 4 1 4 2 4 4 5 4 1 3 4 7 7 9 11 12 13 12 7 9 13 14 13 12 11 10 10 13 15 13 11 6 4 7 11 14 15 12 10 9 11 13 13 13 10 9 11 11 12 13 15 16 15 14 15 16 16 16 17 17 16
30 28 21 11 3 4 7 5 4 7 13 15 14 10 3 6 4 5 4 2 2 3 1 3 2 4 8 4 2 4 4 3 5 5 2 2 2 4 4 5 7 10 11 14 15 13 9 9 11 13 12 11 11 10 11 13 13 12 11 9 9 9 9 11 10 9 10 12 14 16 16 13 11 10 12 12 12 13 14 13 12 14 16 16 15 15 16 16
30 26 15 4 2 6 6 4 5 12 15 15 12 6 6 5 4 6 3 1 1 2 1 3 4 4 7 5 2 5 4 3 6 5 2 1 3 2 2 4 5 7 9 11 12 15 16 11 9 10 12 13 13 11 11 12 13 11 10 9 8 8 8 8 9 10 11 12 13 16 18 17 13 10 10 11 12 14 15 14 13 14 15 15 14 14 15 16
29 24 8 2 3 6 6 8 13 16 14 13 9 5 6 4 5 4 1 2 1 2 3 3 6 5 5 4 4 7 4 3 6 5 3 2 1 3 3 1 1 5 8 9 10 12 15 15 12 10 12 14 13 11 11 12 13 11 9 10 9 8 7 8 9 10 11 11 11 14 17 16 14 12 12 12 12 12 12 13 13 13 14 13 14 14 14 14
28 20 3 4 4 6 9 13 15 15 12 10 8 5 4 5 4 1 2 1 0 4 4 3 4 5 5 3 4 7 3 3 6 4 2 2 1 4 5 7 5 5 5 6 9 9 10 14 17 14 10 13 15 11 10 10 12 13 11 10 10 8 8 10 10 9 10 11 12 13 14 13 13 13 16 17 15 11 9 10 11 11 11 11 12 14 14 14
25 14 5 3 8 10 12 16 14 13 11 8 7 4 5 6 0 2 1 4 4 3 3 3 3 3 3 3 5 6 1 3 6 5 2 3 3 3 4 7 8 5 5 6 7 9 10 10 15 17 11 13 18 14 11 10 10 13 12 10 11 9 8 8 8 9 9 9 12 14 10 9 9 8 10 15 18 16 14 12 12 11 11 10 10 13 14 15
22 10 5 3 8 10 13 15 13 11 9 7 5 5 6 3 1 1 1 4 3 2 2 2 4 3 2 3 5 5 3 3 5 4 2 1 1 3 2 5 9 7 4 6 5 7 12 7 6 11 9 12 18 16 12 11 9 11 11 11 11 10 8 6 6 8 8 7 10 12 8 5 5 3 3 8 12 16 18 18 17 15 14 13 11 12 14 14
18 7 4 2 8 12 14 14 10 8 7 6 5 5 2 2 3 2 2 2 2 3 2 2 1 3 0 1 3 6 3 3 4 3 1 2 3 5 5 5 8 8 5 5 4 3 10 6 6 6 7 11 14 14 14 12 8 8 11 12 11 10 10 8 8 8 7 9 8 8 9 8 6 6 8 10 10 12 15 17 18 19 17 16 14 13 14 14
15 6 3 3 12 16 15 11 7 7 7 6 4 1 2 3 3 3 3 1 1 3 5 2 2 3 3 2 2 6 6 3 2 3 1 2 2 5 6 5 6 8 7 5 3 1 4 5 3 5 12 10 5 8 13 14 11 7 9 12 11 11 11 8 8 8 9 10 8 8 11 11 9 7 9 15 16 15 15 15 16 17 17 17 15 14 16 15
13 7 3 6 18 18 14 9 5 6 6 4 1 3 2 2 3 3 2 1 0 1 4 2 2 2 3 3 2 5 7 4 3 3 2 1 2 4 5 4 6 8 8 6 4 1 4 8 5 7 12 9 6 8 12 14 16 13 9 9 11 10 11 9 8 8 10 10 8 10 12 11 9 7 6 12 17 17 17 16 16 17 16 15 15 16 18 17
10 6 2 11 22 17 10 7 6 6 5 3 3 3 2 4 6 4 2 1 1 2 2 1 2 1 1 5 4 3 4 5 5 4 2 1 1 4 5 4 6 8 8 7 6 3 3 7 6 8 10 7 8 10 10 12 16 16 13 10 10 9 9 9 8 8 9 9 8 9 10 9 8 9 7 8 11 14 15 14 14 16 16 14 14 14 16 16
7 4 2 16 25 16 8 7 6 4 2 0 2 4 4 5 5 5 2 0 1 2 2 1 1 1 1 3 4 2 3 4 4 4 2 2 0 3 6 6 7 9 10 7 5 4 3 6 6 7 8 7 9 11 13 13 13 15 14 11 10 9 9 10 9 9 9 8 7 7 7 6 5 8 10 8 8 9 11 11 11 12 13 13 14 14 14 15
6 2 4 18 26 16 9 6 2 1 1 2 4 5 4 3 4 5 4 1 1 2 3 3 2 3 3 3 2 2 4 5 3 4 3 1 0 2 5 7 8 9 9 7 4 2 3 5 8 7 6 9 10 7 8 9 7 9 13 14 13 11 11 10 10 11 10 9 8 6 6 4 3 5 9 10 9 9 10 11 11 11 12 13 13 14 14 14
5 2 6 19 25 16 8 1 3 2 1 3 4 5 3 2 2 4 4 1 1 1 1 1 2 3 3 3 4 4 5 6 4 4 3 1 2 3 5 7 9 9 8 6 3 3 5 5 7 8 8 10 8 3 5 7 6 5 7 11 13 13 12 12 10 9 10 11 10 8 8 3 4 4 4 5 6 7 9 10 10 11 12 12 13 14 14 14
3 4 6 17 22 13 6 2 4 1 4 4 3 5 4 2 2 3 2 1 1 0 1 1 1 3 2 2 5 5 5 5 4 4 4 3 2 3 5 6 8 8 6 5 2 3 4 5 6 7 8 11 12 7 5 5 5 6 7 6 7 9 9 8 5 3 5 10 10 8 8 6 3 4 4 4 5 5 6 8 8 8 9 10 10 9 10 13
3 3 3 15 21 9 3 3 3 3 5 4 5 5 4 4 5 3 3 3 2 1 2 2 1 3 2 3 5 6 4 3 3 2 3 5 1 4 3 4 6 7 5 4 4 5 4 5 6 7 8 10 12 10 7 5 6 9 8 4 3 5 5 5 4 3 4 8 9 8 8 6 4 6 6 7 9 9 8 8 8 7 8 10 9 6 5 8
4 2 1 10 17 9 3 4 3 3 5 4 5 4 2 4 5 5 4 4 3 3 2 1 1 3 3 4 5 5 4 4 3 3 3 5 3 1 1 3 5 6 6 7 7 7 6 5 5 7 9 10 9 8 5 4 6 8 7 5 4 5 5 6 7 7 8 8 9 8 6 3 5 7 6 7 7 8 7 6 5 6 6 7 7 5 4 6
3 2 2 4 7 7 6 5 4 2 3 2 3 2 0 2 4 3 3 2 3 2 2 1 1 3 3 5 6 5 5 4 4 4 4 6 5 2 1 3 6 6 6 7 8 7 6 6 7 9 11 8 6 5 6 6 5 5 5 6 6 5 5 6 9 11 10 9 10 9 9 9 5 7 6 4 1 5 6 7 7 5 5 4 3 2 3 5
2 3 5 4 2 5 5 5 5 3 1 2 1 1 1 0 2 2 1 2 2 1 1 1 2 3 3 5 6 5 4 5 5 6 7 7 6 4 3 5 7 4 3 6 6 4 5 6 8 11 14 14 12 11 10 9 9 8 7 6 6 5 6 7 11 11 5 6 11 9 6 11 8 3 2 3 7 10 10 11 11 10 9 7 6 4 4 4
3 3 4 4 3 4 6 5 6 4 3 1 0 1 0 1 1 0 1 1 0 1 2 1 1 3 4 4 5 5 4 6 6 6 6 6 6 6 5 7 6 2 3 6 5 3 5 7 8 10 14 16 15 13 12 11 11 11 11 11 9 8 8 10 12 11 6 6 9 4 5 9 9 9 10 10 12 12 11 11 11 11 10 8 7 6 7 7
3 3 3 3 2 5 5 4 4 4 3 2 1 1 1 1 2 1 1 1 2 0 4 4 1 3 4 3 5 5 4 6 5 4 4 6 7 7 6 7 5 2 4 7 5 3 5 6 6 9 12 16 16 13 12 12 13 13 14 14 13 11 11 11 11 11 10 10 9 8 10 11 10 11 13 13 14 14 12 11 11 12 11 10 9 10 10 10
3 3 3 2 3 5 4 4 3 2 3 1 0 2 1 1 3 2 2 4 3 0 2 5 3 4 5 3 4 6 5 6 7 5 6 7 7 6 5 5 4 3 4 6 4 4 5 4 7 9 10 13 14 13 12 13 14 15 16 15 14 14 13 12 11 11 12 12 10 11 12 11 9 9 12 13 13 14 14 14 13 12 11 11 12 13 12 11
5 4 3 2 3 3 3 5 3 1 3 1 1 2 1 1 3 4 3 2 4 3 2 5 5 5 5 4 5 6 5 5 7 8 9 8 8 7 5 5 6 6 6 6 6 5 5 6 8 8 7 9 10 9 10 12 13 16 17 17 16 15 12 11 11 10 10 10 11 12 10 7 4 7 12 12 12 14 16 16 14 12 12 13 14 14 14 13
5 4 3 2 1 3 3 4 3 2 3 2 2 1 1 1 3 5 2 2 2 3 2 5 7 6 5 5 4 4 5 6 9 10 10 10 11 11 9 10 12 10 8 8 7 6 6 7 7 6 7 8 8 8 9 9 10 13 14 15 17 16 14 13 10 5 3 6 9 9 5 2 5 9 11 12 12 13 14 14 13 14 14 14 14 15 15 15
Wind_Direction
15 13 10 8 5 2 0 359 358 356 353 353 352 351 348 345 342 339 335 328 323 317 312 310 310 312 315 321 318 311 314 307 281 244 240 259 276 258 264 221 192 179 161 162 164 163 168 179 181 179 184 186 206 203 188 212 228 224 226 235 250 240 94 44 39 38 33 98 130 159 177 178 159 166 155 158 170 149 154 145 128 129 107 97 124 141 149 154
15 13 10 8 5 2 359 357 356 353 352 352 352 349 345 342 341 339 336 332 328 321 317 311 310 311 312 326 323 311 312 286 266 256 250 288 336 289 242 201 188 177 166 170 173 171 172 177 177 177 186 187 195 194 185 197 208 219 232 234 244 256 66 35 28 42 20 53 120 162 185 190 163 161 170 179 167 156 162 151 144 133 120 120 132 144 152 157
14 13 11 8 5 2 359 356 354 352 350 350 350 348 342 340 340 339 338 335 329 323 319 313 312 311 311 328 329 317 313 280 269 251 240 338 334 309 223 187 182 174 171 179 179 178 179 176 173 175 186 191 190 194 191 187 199 219 241 242 239 26 97 76 15 40 31 33 134 155 181 195 163 160 183 188 166 170 177 158 160 150 138 141 143 151 156 161
13 12 11 8 5 1 358 356 353 350 348 348 347 345 341 339 337 337 336 333 327 321 319 315 312 312 314 327 336 327 298 270 265 90 13 322 312 300 199 178 175 172 176 185 182 184 184 174 174 182 191 192 191 202 205 188 192 211 226 246 21 73 200 127 72 64 54 31 115 134 176 191 171 170 193 196 176 184 189 170 171 157 147 149 151 158 162 164
12 12 11 8 5 1 358 355 352 349 345 345 344 342 339 337 337 334 332 328 322 317 317 316 312 315 317 327 353 314 273 254 90 27 341 316 300 273 182 172 170 172 179 185 182 186 184 174 179 191 201 201 188 201 214 199 210 232 224 246 290 243 206 113 110 76 52 46 100 141 185 179 171 189 205 204 187 170 183 173 166 156 151 153 158 162 165 167
11 10 9 8 4 0 358 355 352 349 344 343 340 339 337 335 335 332 329 324 318 317 317 315 313 317 326 339 4 257 265 301 58 1 353 343 304 240 169 166 169 174 181 180 179 184 183 179 185 193 207 214 198 203 214 200 216 244 229 237 252 251 245 160 171 57 3 333 118 158 181 167 185 204 207 210 203 57 77 163 154 151 154 154 159 165 168 170
9 9 8 6 4 0 358 355 352 349 344 341 338 336 334 332 331 329 327 321 317 320 316 313 315 322 346 349 286 235 255 307 44 6 5 8 348 168 162 164 168 175 181 178 178 182 181 183 191 197 206 216 210 211 210 198 214 238 248 242 242 251 248 244 256 265 263 265 273 259 222 206 207 211 193 206 216 116 84 143 145 146 152 155 161 168 171 171
8 8 7 5 3 0 357 355 353 350 345 341 336 333 330 327 325 325 324 318 318 320 313 312 324 359 22 336 273 261 248 83 53 17 11 15 32 149 157 163 171 178 182 182 181 181 181 186 194 200 209 217 216 211 201 201 216 229 247 255 252 257 249 249 258 255 251 253 263 251 242 224 214 228 207 204 210 172 129 138 143 148 153 159 164 168 171 172
7 7 5 4 3 359 357 355 354 352 348 341 336 331 325 322 320 322 320 318 321 319 309 302 85 52 51 262 280 288 91 97 52 13 15 27 96 149 157 166 178 182 184 188 186 184 184 189 196 201 219 225 217 213 202 206 219 223 238 248 250 254 248 249 252 248 247 244 251 248 245 231 213 232 232 213 198 160 149 147 147 154 159 163 166 169 171 173
6 5 4 3 1 359 357 354 355 356 351 341 334 329 323 321 320 321 320 322 327 325 316 92 58 60 189 259 280 282 73 76 331 356 10 43 125 158 171 176 180 184 187 190 190 191 191 194 197 202 241 240 220 220 207 211 231 225 242 250 251 257 257 256 257 249 246 245 244 248 250 240 211 214 224 199 175 156 156 155 153 159 164 167 169 171 172 174
4 4 2 1 360 359 357 355 358 358 351 341 333 327 324 325 325 325 328 338 3 34 1 297 19 22 249 271 278 281 45 355 314 343 359 53 153 179 187 185 185 189 190 189 193 195 197 199 196 196 241 238 214 224 220 224 248 263 262 263 253 254 254 249 250 243 238 240 234 238 248 246 213 205 222 169 154 161 164 160 160 165 168 169 171 172 174 177
3 2 1 359 358 358 357 355 358 357 350 341 333 330 331 334 337 341 356 33 33 351 318 260 257 277 266 261 260 316 352 320 320 344 347 358 205 196 196 196 192 196 197 195 197 197 201 201 196 200 207 211 209 218 231 230 241 255 259 270 264 255 249 238 235 232 227 223 218 228 243 238 213 206 213 163 153 168 169 165 166 169 170 171 173 173 176 178
2 1 0 358 357 357 356 356 358 358 352 342 336 337 343 353 356 14 81 52 4 333 292 258 254 253 266 266 24 334 329 319 344 358 350 335 214 196 200 201 196 203 209 208 204 199 204 203 202 212 216 243 222 193 308 234 226 244 244 256 266 259 248 230 221 219 218 217 207 216 241 228 204 200 192 162 165 175 172 171 171 172 172 173 175 174 178 178
1 0 360 357 356 357 356 356 358 359 354 344 342 346 357 3 356 111 127 14 355 336 283 254 229 243 260 219 79 56 56 11 314 354 0 40 153 173 186 191 191 202 215 219 212 198 204 208 209 221 225 242 260 325 268 231 210 231 232 236 245 252 241 212 206 210 210 206 198 210 239 226 187 180 173 165 174 179 176 176 174 175 174 174 177 177 180 181
1 1 359 356 356 357 357 358 359 2 357 346 346 354 1 357 292 164 151 355 352 350 91 159 210 248 256 150 124 179 54 4 284 334 343 159 148 164 175 182 186 194 205 211 207 193 200 208 210 221 217 223 257 262 232 223 211 217 222 223 221 235 235 198 190 205 208 194 194 212 235 234 193 163 162 168 178 182 181 179 177 177 177 176 179 180 182 184
1 0 358 356 356 358 358 359 1 5 0 348 348 358 0 350 214 174 171 346 351 27 112 182 222 262 278 65 120 210 315 328 318 325 293 184 202 170 165 175 182 190 198 196 194 190 196 205 209 222 219 209 224 235 229 221 215 210 219 225 213 215 226 207 185 198 210 197 194 209 224 234 196 152 160 173 180 185 184 182 181 180 178 178 179 181 184 184
0 360 357 355 357 359 358 0 1 7 5 351 344 360 4 349 193 175 321 341 353 93 221 268 268 265 262 51 118 280 332 328 319 302 230 203 230 173 157 167 176 182 185 183 187 188 191 200 205 214 221 220 214 217 223 218 209 201 212 227 222 215 218 212 186 189 207 211 204 209 222 233 195 150 165 178 181 188 190 186 184 183 180 179 180 181 183 185
0 359 356 355 358 358 358 2 3 7 9 357 347 5 10 7 169 236 304 323 310 216 230 247 262 239 209 14 336 332 336 326 318 293 241 216 202 175 162 164 169 174 174 173 184 187 186 193 202 209 211 217 214 207 213 215 210 204 202 219 223 216 218 216 193 174 199 211 215 215 221 230 219 179 172 182 185 193 197 192 188 186 183 180 181 183 184 186
359 358 356 355 356 358 358 5 8 7 13 12 2 347 354 356 187 222 281 291 267 247 250 293 309 283 321 344 342 338 330 317 311 276 189 179 174 168 163 164 169 177 177 172 181 185 186 190 199 210 208 206 208 207 213 217 228 224 214 217 222 216 220 220 202 152 194 214 220 220 222 226 227 212 189 187 189 197 201 196 191 188 186 183 184 186 186 188
359 358 355 354 356 357 358 8 12 8 20 22 357 312 297 335 231 196 325 323 350 347 311 321 332 310 321 331 339 338 332 319 356 106 127 162 167 161 158 166 173 185 193 180 176 182 190 199 203 211 211 206 206 210 219 223 253 251 232 222 226 224 219 217 211 185 197 228 225 222 226 225 228 224 210 194 190 199 203 197 194 191 188 187 189 189 188 190
359 357 354 353 353 354 355 12 14 9 24 24 5 5 44 13 3 359 340 315 101 345 295 309 308 287 314 319 335 342 334 43 81 84 115 167 171 164 158 171 176 187 203 187 170 177 193 212 214 213 214 211 209 210 220 225 223 244 243 227 226 227 223 218 210 186 200 231 232 226 229 225 223 224 220 203 195 200 201 200 197 193 191 190 192 192 188 186
359 357 353 350 349 349 349 14 17 8 17 20 28 49 60 39 9 331 313 285 297 317 276 287 263 280 324 297 332 334 303 297 79 87 105 183 194 189 170 179 191 189 193 190 176 181 199 221 221 212 212 217 218 212 214 223 223 228 238 234 228 223 227 226 209 190 207 228 235 231 234 234 225 223 223 211 202 202 202 206 201 193 193 192 193 192 188 185
358 356 350 345 344 343 338 8 18 13 17 18 38 48 40 12 337 296 265 278 290 198 232 335 293 337 3 37 8 325 299 11 51 77 76 224 214 215 197 189 202 196 190 194 192 191 200 220 221 210 206 211 214 208 206 214 222 227 232 235 232 220 223 227 209 207 223 232 243 244 246 246 234 227 226 219 209 204 206 210 206 197 195 194 192 191 187 186
355 354 348 343 339 339 333 325 8 12 16 19 48 45 3 332 317 275 245 270 273 172 176 11 343 356 4 4 323 313 324 37 325 44 33 262 212 205 221 205 205 207 199 200 205 211 214 216 216 209 204 204 203 199 204 212 221 225 228 233 234 221 225 237 220 210 229 230 237 247 255 252 238 229 225 220 214 211 209 209 205 199 197 196 195 193 191 188
351 351 347 341 335 338 324 250 354 0 327 346 42 10 339 331 308 246 246 259 209 159 164 185 252 8 352 304 302 318 294 269 316 35 8 296 267 224 224 215 215 215 203 202 213 223 221 211 190 200 198 200 207 207 209 214 223 224 222 228 238 237 230 237 245 238 239 229 216 223 243 245 231 230 227 220 214 211 207 203 199 195 193 196 197 195 194 191
348 349 346 339 334 335 310 234 10 342 295 126 5 343 332 333 289 219 242 257 194 145 153 207 278 21 357 326 342 329 230 169 45 26 351 327 277 258 237 213 214 227 213 203 216 234 226 208 174 188 196 200 213 219 211 211 226 232 212 214 229 240 240 237 239 234 240 239 202 199 236 248 228 227 226 222 217 208 203 201 196 191 189 196 199 195 194 192
347 348 344 338 337 339 327 324 346 331 308 344 340 331 328 324 246 196 240 248 191 107 102 32 10 4 0 343 334 311 222 351 2 153 7 346 238 231 235 223 206 228 227 203 216 222 219 210 183 190 204 203 212 219 207 205 221 233 207 202 219 227 234 236 240 236 243 259 225 194 228 251 241 229 224 223 219 208 205 204 196 190 190 196 200 197 195 193
347 347 343 338 335 343 342 323 322 338 349 331 325 323 323 304 193 193 259 250 139 68 30 43 19 327 330 321 329 345 22 336 306 62 19 318 217 214 231 236 228 226 213 207 221 198 201 216 201 195 209 209 211 216 207 204 219 232 217 207 220 223 229 233 240 242 242 254 248 220 219 238 242 232 229 230 222 209 208 210 199 191 192 196 200 199 197 193
346 347 342 338 334 351 343 312 300 335 339 326 323 324 316 187 186 218 263 255 104 99 91 6 331 316 319 284 350 24 18 341 335 354 0 208 219 241 241 260 261 240 215 215 233 211 193 217 214 204 213 219 214 212 210 208 219 231 224 220 226 224 228 230 234 242 242 244 245 231 221 231 243 229 222 225 220 213 212 211 202 194 193 196 200 200 196 192
346 346 342 339 345 346 329 285 270 325 330 328 328 320 234 177 212 240 230 231 83 91 73 358 341 326 331 305 119 34 359 9 357 327 290 152 178 222 250 287 271 256 232 219 233 240 227 215 215 214 218 228 225 214 212 212 217 229 227 224 228 223 221 224 227 233 241 241 237 233 230 235 246 233 219 216 216 220 220 212 202 197 194 195 199 199 194 191
344 345 342 330 342 346 321 282 317 326 325 332 333 292 215 196 248 248 230 158 85 93 133 46 22 351 349 346 23 19 0 17 3 333 303 164 169 192 257 234 227 248 241 223 226 237 236 223 213 213 213 225 232 223 215 210 213 225 224 218 224 218 207 214 216 216 233 241 232 229 231 235 241 235 223 214 209 218 226 218 202 195 195 195 195 198 195 193
344 343 333 198 356 352 319 307 320 319 320 329 319 252 224 227 233 239 111 159 207 47 69 36 20 11 352 340 8 6 346 10 8 350 348 337 137 60 23 14 252 238 231 226 217 218 229 229 221 211 205 212 221 220 214 209 211 219 216 209 213 207 195 203 207 209 226 237 231 225 226 231 241 241 234 229 217 211 219 219 208 200 199 195 193 195 193 192
344 341 288 166 0 328 313 318 318 313 316 313 282 237 241 250 236 316 54 117 355 42 46 8 9 5 342 330 17 3 331 22 5 338 341 311 233 96 78 44 360 271 249 248 228 212 219 223 220 215 200 202 211 213 209 203 204 210 206 205 209 200 195 203 207 215 227 231 226 225 229 235 241 242 235 235 237 229 214 212 216 216 212 202 194 192 190 190
346 342 206 166 347 326 318 319 313 309 305 285 260 225 236 245 189 50 53 65 65 77 57 12 339 341 18 35 23 3 338 61 19 335 313 253 228 122 97 51 19 309 281 275 250 226 222 219 211 212 202 196 207 216 220 208 200 205 206 210 216 212 208 207 205 215 226 230 216 210 221 235 228 229 229 228 233 235 230 225 226 229 225 218 204 193 190 192
354 358 183 189 333 327 320 312 302 297 282 262 251 228 233 247 71 90 82 62 70 90 66 14 306 293 99 80 51 39 9 26 25 339 321 312 353 41 35 30 22 356 293 258 260 241 239 240 177 194 198 193 202 210 222 224 207 197 203 214 218 219 225 232 233 233 238 245 220 201 206 231 220 203 209 222 225 226 231 232 231 231 226 223 218 203 196 197
358 4 181 208 330 329 324 314 298 278 256 247 244 225 224 26 40 54 50 24 10 9 327 232 317 323 26 75 69 62 22 332 351 322 247 80 44 40 30 26 20 6 345 278 282 268 246 231 115 142 186 194 207 207 208 226 224 187 197 215 216 219 231 241 245 248 253 251 232 208 213 225 238 240 221 222 228 224 225 226 226 228 225 222 223 213 204 201
348 336 228 317 344 337 329 321 293 254 238 247 249 222 69 59 42 41 51 23 41 358 302 265 55 348 334 349 29 29 358 307 333 320 235 136 89 43 24 28 24 7 359 326 294 6 287 257 151 185 201 188 202 214 207 225 242 223 203 203 205 219 230 240 243 231 230 239 231 216 221 219 225 234 217 215 222 225 224 224 222 221 220 220 219 213 208 205
326 311 245 349 350 340 332 326 282 239 235 240 177 82 62 95 67 52 69 60 159 275 289 311 35 341 322 329 2 17 343 319 3 334 293 236 102 47 15 6 15 4 355 325 279 15 319 274 236 211 209 188 178 211 215 219 231 248 246 203 196 215 217 216 233 230 224 235 234 221 224 225 223 224 211 211 215 219 222 222 222 219 216 217 214 209 207 205
303 286 195 4 351 342 336 317 264 237 238 220 144 109 90 102 82 66 85 102 254 280 303 20 6 316 2 339 341 13 350 341 349 323 293 328 51 57 27 355 353 353 349 324 294 319 299 262 236 196 194 195 192 205 217 210 213 235 255 237 216 222 217 207 219 234 235 241 240 223 219 222 226 227 226 212 206 216 220 216 218 219 217 215 212 209 206 203
300 271 85 4 349 344 333 289 256 243 234 140 98 117 116 109 93 78 77 350 295 317 334 23 329 297 32 338 309 355 0 331 323 315 317 339 10 85 50 10 347 345 337 306 282 305 275 252 246 199 181 205 213 209 219 218 209 213 224 232 228 221 218 217 221 226 235 245 244 233 225 220 210 215 224 221 206 215 224 223 223 222 218 212 209 211 207 200
298 266 43 358 346 339 313 272 253 347 164 95 82 108 102 79 89 89 83 19 344 1 342 336 325 328 340 312 290 21 337 296 296 304 292 322 339 86 58 19 345 340 330 285 249 317 300 250 247 235 210 213 212 210 237 249 251 227 214 216 222 219 213 219 224 219 224 240 242 240 243 229 149 178 212 221 223 226 227 232 235 231 227 219 212 214 210 201
299 339 2 346 343 332 304 246 94 10 100 96 83 91 74 40 78 84 83 67 54 55 333 317 337 326 322 314 323 340 308 291 292 288 280 341 332 346 38 14 336 329 325 286 254 350 330 278 252 252 250 243 246 307 315 290 298 286 240 219 219 221 218 220 224 220 223 230 234 244 250 231 121 135 181 197 214 231 234 238 242 239 239 233 221 217 210 202
334 359 348 344 343 321 286 94 108 94 82 96 101 81 66 65 76 75 75 35 356 19 280 269 333 307 316 339 314 305 303 301 286 281 290 281 302 16 24 356 335 326 319 298 294 352 315 266 247 249 256 265 270 278 280 276 271 250 237 228 229 230 230 237 251 269 245 226 220 227 237 235 183 168 210 237 240 250 250 251 255 252 253 249 242 233 213 204
339 324 348 358 356 333 271 56 81 111 94 120 129 100 83 61 46 42 58 32 357 329 291 305 340 303 318 320 292 296 317 309 264 263 286 278 326 59 4 330 339 331 338 356 348 341 307 258 244 241 234 234 237 229 217 223 233 230 222 215 240 239 245 265 270 281 265 242 238 233 226 229 192 180 213 244 252 258 254 249 251 252 259 257 254 256 218 202
306 274 122 19 18 27 57 36 26 98 109 131 123 106 120 93 55 24 39 47 23 339 304 331 346 302 313 296 272 278 289 285 283 288 288 285 295 59 340 327 318 314 348 357 326 310 294 280 268 247 231 217 214 218 222 224 224 223 213 204 222 227 236 247 242 235 235 241 252 250 237 211 145 162 200 221 237 259 269 275 267 255 262 261 251 240 208 195
324 354 19 28 41 55 66 45 17 56 109 144 130 95 164 129 97 45 10 31 47 10 334 23 313 271 292 295 281 277 274 273 290 299 292 286 284 282 347 316 294 302 334 324 300 295 286 277 272 265 261 262 274 295 315 319 288 240 210 205 211 216 231 238 234 232 234 239 240 237 251 255 201 158 177 195 245 334 340 346 340 323 326 330 310 276 232 214
336 4 6 355 26 45 54 51 30 37 54 305 269 110 2 228 135 98 6 357 38 2 294 24 329 287 302 308 294 288 285 280 280 288 292 289 288 289 278 275 277 286 296 277 274 292 292 273 265 269 271 277 290 299 299 294 285 277 268 249 230 218 224 227 226 228 232 240 230 218 253 268 250 207 234 324 357 355 352 353 347 336 328 324 317 304 276 252
3 28 18 318 310 20 34 33 29 48 73 32 328 169 168 65 78 84 73 71 209 280 277 239 286 311 319 316 301 293 294 286 274 278 293 295 296 296 282 275 273 241 236 258 263 297 294 278 274 278 281 284 288 289 284 277 271 273 273 266 255 238 228 227 231 236 241 244 242 258 314 288 272 278 298 322 336 334 334 337 329 319 315 316 316 310 298 289
26 49 39 326 336 38 41 39 35 56 74 62 76 88 67 70 55 23 12 283 220 244 303 283 273 311 302 293 287 285 292 293 283 287 307 304 301 300 295 288 278 227 246 263 264 282 282 277 290 298 295 291 287 279 271 267 263 264 263 260 258 252 243 238 240 243 246 249 257 276 288 285 280 290 310 328 327 322 323 324 318 313 318 325 323 317 310 308
30 45 26 12 60 54 45 48 40 77 83 15 264 82 38 19 45 24 323 291 278 126 310 296 306 306 293 276 267 273 290 298 290 294 304 302 298 296 297 298 291 274 272 269 263 270 272 285 310 312 299 286 283 276 265 255 253 258 259 257 255 252 246 242 243 243 242 242 241 245 256 261 268 302 327 329 323 320 317 316 316 314 320 329 325 322 321 318
46 53 2 326 56 44 30 47 37 75 91 44 38 75 28 34 28 335 285 262 298 320 325 306 310 306 286 260 259 275 293 292 282 285 291 289 285 286 286 284 289 291 282 272 265 262 264 276 292 297 289 279 277 277 273 263 255 253 253 250 248 246 244 242 239 237 239 237 228 229 237 241 264 330 335 323 319 319 314 314 318 317 324 328 324 321 321 318
47 54 13 312 38 43 31 51 45 52 72 42 39 54 300 344 12 322 300 149 263 300 316 307 309 307 283 271 279 305 313 299 289 287 286 278 273 272 267 262 266 271 271 271 273 268 264 273 281 280 281 284 285 293 300 286 259 250 247 242 239 236 238 240 234 213 223 238 231 231 242 321 343 337 326 315 318 316 309 312 316 316 318 318 316 317 317 316
Height
823 821 818 815 813 811 809 807 805 803 801 800 798 797 796 795 793 792 791 789 788 786 785 783 782 781 780 780 779 778 777 778 778 778 775 768 767 768 768 769 770 772 774 776 779 780 781 783 783 783 784 784 783 780 782 782 780 787 793 796 793 784 779 773 771 771 770 771 771 771 769 773 779 774 768 768 772 775 778 779 777 777 776 776 779 785 792 797
823 820 818 815 813 810 808 806 805 803 801 799 797 796 794 794 792 791 790 788 787 786 784 783 781 780 779 779 778 777 776 777 776 774 769 765 766 766 766 768 769 771 773 774 775 775 777 779 779 781 783 784 782 779 783 781 781 789 788 791 788 778 774 769 768 768 767 770 769 768 767 768 773 772 769 775 780 778 782 784 781 783 782 780 782 789 795 797
822 820 817 815 812 810 808 805 804 802 800 798 797 795 794 793 791 790 789 787 786 785 783 782 780 779 778 778 778 776 777 777 773 768 764 764 764 763 764 766 767 769 771 772 773 773 774 776 777 779 782 784 782 780 784 782 782 784 783 790 782 770 770 767 766 767 766 766 768 769 767 768 768 766 769 775 779 779 782 783 784 788 787 785 786 790 795 797
822 820 817 814 812 809 807 805 803 801 799 798 796 794 793 791 790 789 788 787 785 784 783 781 780 779 778 777 777 777 777 775 768 763 763 763 761 761 762 764 766 769 771 772 774 775 775 776 778 778 782 785 782 781 784 781 780 779 781 785 774 768 772 768 765 765 764 764 766 769 769 771 766 763 769 772 780 783 777 775 778 783 784 785 788 790 794 796
822 819 817 814 811 809 806 804 802 800 798 796 795 793 792 791 789 788 787 786 784 783 782 780 780 778 777 777 776 777 777 773 765 761 762 760 759 759 759 762 766 768 771 773 774 774 775 776 778 780 783 783 783 784 783 777 775 778 776 774 768 769 773 768 763 765 765 764 766 770 772 770 764 766 769 771 782 781 769 766 768 773 778 782 786 789 792 794
822 819 816 813 811 808 805 803 801 799 798 795 794 792 791 790 788 787 786 784 783 782 781 779 779 778 777 777 776 778 776 769 762 762 761 757 757 756 758 761 765 768 771 772 772 773 774 776 779 783 783 781 783 784 779 773 773 781 776 768 768 768 771 768 764 766 765 766 770 770 767 764 767 771 767 769 775 768 759 759 763 769 774 779 783 787 790 793
821 818 816 813 810 808 805 803 801 798 797 795 793 791 790 788 787 787 785 783 782 781 780 779 778 777 777 776 777 776 772 765 761 763 760 756 756 755 757 761 764 769 769 770 770 772 773 776 780 780 782 782 781 779 775 773 774 782 779 770 769 767 769 767 764 765 764 768 768 763 764 766 772 772 765 768 767 760 758 757 761 768 772 778 782 786 790 792
821 818 815 812 809 807 804 802 800 798 796 794 792 791 789 787 786 785 783 782 781 780 778 778 778 777 777 777 776 771 766 763 762 763 761 758 756 756 759 762 766 767 767 768 767 768 771 776 778 776 782 780 776 775 774 777 778 780 779 772 769 768 767 764 764 765 764 765 762 761 767 767 767 765 764 767 762 758 760 760 764 769 773 778 782 786 789 792
820 817 814 812 809 806 803 801 799 797 795 793 791 790 788 786 785 784 782 780 779 779 777 777 778 777 777 776 774 769 763 762 763 763 762 761 760 759 762 763 766 766 766 767 766 768 770 774 774 771 777 775 772 774 773 781 781 774 773 770 770 770 765 764 765 765 764 762 761 765 769 764 758 761 766 762 757 758 760 763 767 771 776 779 782 785 787 790
819 816 814 811 808 805 802 800 798 796 794 792 790 788 787 785 784 783 781 780 779 778 777 778 777 777 778 775 773 769 762 762 764 764 763 763 763 763 764 763 765 765 765 766 765 766 766 769 768 765 772 771 771 773 773 778 773 765 769 769 769 769 764 764 766 763 762 760 760 767 769 761 754 763 771 758 751 757 762 767 768 772 778 779 781 783 785 788
819 816 813 810 807 804 801 799 796 795 793 791 789 787 785 784 782 781 780 779 778 778 778 778 777 777 777 775 773 767 762 764 764 764 764 764 764 764 764 764 765 765 764 764 765 764 764 765 763 767 774 771 771 774 771 769 766 764 769 770 768 766 763 763 764 762 761 761 757 760 765 760 756 765 767 753 751 758 763 769 769 773 777 778 781 782 784 787
818 815 812 809 806 803 801 798 796 794 792 790 788 785 784 782 781 780 779 779 779 779 778 777 778 777 777 774 770 765 762 764 764 764 764 763 764 764 764 765 765 765 764 764 764 764 765 764 764 771 773 769 773 777 770 763 765 767 770 776 771 765 765 761 759 758 759 761 752 755 770 768 762 765 758 750 754 757 763 769 770 773 775 777 780 781 784 786
818 815 812 809 805 802 800 797 795 794 791 789 786 784 782 781 780 779 779 779 779 778 777 778 777 777 777 770 765 764 763 764 764 763 764 763 763 763 764 765 765 766 766 764 765 765 766 765 766 768 766 769 773 771 766 761 766 772 770 776 775 772 768 754 752 754 756 758 746 758 785 775 757 755 749 748 754 758 764 768 769 772 773 776 778 781 784 784
817 814 811 808 805 802 799 797 795 793 791 788 785 783 781 780 780 779 779 778 778 777 777 777 777 778 775 766 762 764 763 763 763 763 763 763 762 763 764 765 766 767 767 766 766 766 767 766 766 767 765 768 767 764 767 766 768 773 773 775 776 779 768 746 745 752 757 754 742 760 787 771 750 748 745 746 751 757 764 766 767 770 772 775 777 780 782 782
817 814 811 808 804 801 798 796 795 792 790 787 785 783 781 780 779 778 778 778 777 776 776 777 777 777 771 763 762 763 762 762 762 762 763 762 762 762 763 765 766 767 768 767 767 767 769 768 768 771 768 766 768 772 774 772 769 770 778 780 774 776 766 747 743 748 755 752 743 760 780 767 749 745 743 745 749 754 761 763 764 767 769 773 775 777 780 780
816 813 810 807 803 800 798 796 794 792 790 787 784 783 781 779 778 778 778 777 776 775 776 776 776 776 770 763 761 761 761 760 760 761 762 762 762 761 762 765 766 768 768 767 768 768 769 769 769 770 769 769 774 778 776 776 774 769 775 777 770 770 767 755 746 742 746 750 747 758 773 768 751 743 743 744 747 752 758 760 761 764 766 769 773 775 778 779
815 812 809 806 802 800 797 796 794 792 789 787 784 782 781 779 778 778 778 777 776 776 777 776 775 775 769 760 761 761 759 759 760 760 760 761 761 761 762 763 765 766 766 767 769 768 769 770 771 770 770 772 772 775 781 784 779 771 771 771 763 761 763 760 752 742 741 750 754 756 763 763 749 743 745 744 746 751 756 758 759 761 764 766 769 772 775 777
814 811 808 805 802 799 797 796 794 792 790 786 783 782 781 779 778 778 777 776 776 776 776 774 773 775 769 761 763 762 759 759 758 758 759 760 760 761 761 762 763 765 766 769 769 768 771 770 771 774 774 774 770 771 781 779 770 768 769 769 763 757 760 759 752 744 742 750 756 758 762 759 747 742 745 744 744 750 753 754 757 759 762 765 767 769 772 774
814 810 807 804 801 799 797 796 794 792 790 786 783 782 780 779 778 778 777 775 774 774 774 772 771 773 771 764 763 762 759 758 757 757 757 758 759 760 760 762 762 764 768 771 771 769 770 771 774 777 773 770 766 765 768 764 760 761 759 762 763 760 759 753 746 742 742 752 756 757 761 757 750 744 745 744 743 748 751 751 755 758 760 763 765 767 768 771
813 809 806 803 801 799 797 796 794 792 790 786 784 781 780 780 776 775 775 773 773 774 773 772 770 771 770 765 763 762 759 756 756 755 756 758 758 758 760 762 763 766 766 768 770 766 766 774 775 770 764 760 761 761 760 758 761 761 757 759 759 759 758 748 744 741 740 754 757 751 755 755 750 745 740 741 743 747 750 751 754 756 759 761 763 764 766 768
812 809 805 802 801 799 797 796 794 793 790 787 785 782 784 786 783 783 781 774 772 773 773 771 771 770 768 767 765 763 761 757 754 754 757 757 756 759 762 762 767 770 764 762 765 763 767 773 767 760 757 755 757 759 760 760 764 766 763 763 761 760 757 744 742 743 741 755 756 746 752 753 748 744 737 736 744 748 747 749 753 754 756 758 760 762 764 765
811 807 805 803 801 799 797 796 794 793 791 788 786 785 788 791 790 791 788 780 773 772 772 770 770 769 766 766 766 764 764 761 757 756 757 757 756 758 761 762 767 766 761 760 763 768 772 769 758 753 754 754 756 757 761 763 766 770 766 765 765 758 755 748 743 745 745 755 757 749 753 752 743 740 735 734 740 743 740 742 746 749 754 756 758 760 762 765
811 808 805 803 800 799 796 795 794 792 791 789 788 788 790 792 791 791 790 784 776 771 770 770 769 768 765 765 765 764 763 762 762 758 756 758 757 756 759 762 763 761 760 761 762 769 772 762 751 750 752 757 762 760 763 767 768 770 767 767 765 755 757 758 750 749 748 751 753 750 753 750 741 738 734 730 733 736 735 735 738 742 748 751 753 755 758 762
811 809 806 803 800 798 795 794 793 791 791 790 789 790 791 791 790 790 787 781 776 771 769 769 768 767 767 766 765 764 763 763 762 759 756 757 756 757 758 757 759 760 759 758 758 761 760 750 744 748 752 758 765 765 766 770 770 768 765 766 763 755 757 757 751 751 750 749 750 753 762 757 745 744 738 729 729 732 733 734 737 739 742 746 748 750 753 756
811 809 806 802 799 796 794 794 792 791 791 789 789 791 790 790 788 789 786 779 775 771 768 769 768 768 767 765 763 762 763 762 760 758 756 755 756 758 756 752 755 758 756 757 759 758 752 743 743 751 755 759 765 765 764 767 769 767 763 762 759 756 756 755 755 757 762 761 748 752 777 769 744 742 740 731 730 733 733 734 739 741 741 745 747 748 750 752
811 808 805 801 798 796 793 791 790 791 789 787 790 789 788 788 786 787 786 777 771 770 770 770 769 769 767 764 761 760 765 764 756 756 755 756 756 756 757 753 752 755 752 752 757 754 746 741 746 754 757 761 764 762 759 761 768 767 757 754 757 757 759 760 760 763 769 765 742 743 773 772 748 739 734 729 731 733 734 735 737 739 742 743 744 746 747 749
809 807 804 800 798 796 792 790 791 790 788 788 789 788 787 786 785 787 785 779 773 770 771 770 769 770 767 764 760 761 770 764 755 755 755 756 755 754 759 755 752 754 746 750 761 753 744 744 750 755 756 759 762 760 755 756 767 764 748 749 758 759 762 763 762 765 763 755 745 744 760 769 759 740 726 724 729 733 736 737 735 736 739 740 740 741 742 744
808 805 802 799 797 796 794 793 792 790 790 791 788 788 786 784 785 784 784 785 778 771 773 771 769 769 765 763 760 761 767 762 760 759 752 754 755 754 760 754 751 752 744 753 763 748 742 748 751 754 755 755 754 752 748 752 762 756 745 750 756 757 761 760 762 764 758 761 765 753 752 770 767 741 726 725 729 736 738 735 734 734 735 736 737 737 737 740
807 804 801 798 796 796 795 794 793 791 791 790 787 787 785 784 785 780 782 786 776 771 776 772 769 770 765 762 763 763 763 761 763 758 750 753 754 752 758 752 748 750 744 750 755 743 739 742 743 749 754 750 746 744 743 750 756 749 746 753 754 754 756 758 762 763 762 771 774 756 750 767 766 743 733 734 735 738 734 728 728 729 730 732 732 733 734 736
805 802 800 797 796 796 795 793 793 791 791 789 787 786 784 785 784 782 787 784 774 774 777 772 772 773 768 765 765 764 764 763 762 756 752 754 752 751 753 751 750 751 746 746 748 742 735 734 736 742 746 742 740 741 741 745 749 746 750 756 757 755 754 757 759 761 773 778 768 754 747 758 764 745 729 731 731 729 726 723 724 724 726 727 728 729 731 733
803 801 799 797 796 796 794 791 791 790 789 787 786 785 784 782 779 782 786 780 775 777 776 775 777 774 772 772 770 767 766 765 762 759 757 753 753 754 753 753 755 756 753 749 748 744 738 738 738 736 738 738 740 743 741 742 745 748 753 758 764 763 759 765 763 767 784 780 759 748 744 753 763 745 724 718 716 716 718 718 720 723 724 723 724 725 726 729
801 799 797 796 796 795 793 791 790 789 787 786 786 783 782 783 781 779 777 776 780 782 778 781 780 776 776 774 773 773 770 768 765 763 763 759 758 761 762 763 764 766 764 753 748 747 743 739 736 734 733 735 743 748 746 744 745 750 754 760 771 774 775 783 778 774 780 770 749 743 744 751 749 733 720 714 709 709 711 709 712 717 718 718 720 721 722 725
799 796 795 795 795 794 793 791 789 788 786 786 784 778 780 787 785 776 771 775 783 784 782 783 781 778 777 775 777 776 772 772 769 766 765 763 763 765 767 767 766 770 766 753 748 749 747 739 734 737 736 731 738 746 749 748 747 751 753 759 769 774 785 795 783 774 773 760 744 738 743 750 742 724 715 712 708 705 705 706 707 709 711 713 714 716 719 721
797 794 793 794 793 792 791 789 787 786 785 784 780 778 785 789 783 778 777 779 783 783 783 784 781 779 779 779 782 778 774 775 771 769 767 763 764 767 768 769 769 768 764 759 751 746 752 748 734 733 735 730 732 735 736 737 741 744 742 748 756 756 769 779 772 769 767 754 742 742 748 751 741 722 707 704 704 701 702 704 704 705 706 707 709 712 716 718
795 793 793 793 792 791 789 788 786 785 784 781 776 779 786 785 779 779 782 782 783 783 783 783 781 780 779 780 781 779 779 778 772 771 771 768 771 773 774 775 774 770 768 768 755 742 748 745 727 723 725 725 731 728 723 730 740 739 733 743 750 741 744 753 751 746 748 748 742 741 743 734 721 711 701 701 701 699 701 701 702 706 704 705 708 710 713 714
795 793 793 793 792 790 788 786 784 783 782 777 776 779 781 783 782 782 785 785 785 785 784 783 782 782 781 779 780 780 780 779 775 774 773 774 778 780 781 780 777 776 775 772 763 754 756 744 727 728 728 724 727 724 721 731 736 733 737 744 738 727 732 747 750 738 742 757 745 732 736 729 720 716 704 704 707 701 701 700 699 702 701 704 707 706 708 709
794 793 792 791 790 788 786 784 782 782 779 774 777 780 780 785 787 785 787 787 786 786 785 785 786 787 787 784 783 783 781 778 777 776 775 777 782 785 785 782 779 779 778 776 770 764 766 754 734 733 736 729 726 726 725 724 724 729 737 735 727 728 732 741 754 752 755 765 746 729 735 734 734 729 707 703 710 705 700 699 697 697 698 702 703 702 703 703
795 794 791 790 789 787 784 782 781 780 775 773 782 786 784 786 788 787 788 787 787 787 786 787 789 789 790 788 786 786 785 781 779 779 778 778 783 787 788 786 782 779 777 778 773 766 770 767 745 732 736 733 728 734 736 727 722 725 723 716 724 744 747 745 756 758 758 761 747 733 731 727 728 722 706 704 707 702 699 697 696 696 696 698 697 698 699 698
796 792 788 788 788 785 783 782 780 776 773 775 785 789 786 787 789 788 788 788 787 787 787 789 790 789 790 790 789 788 788 787 785 783 782 782 786 789 788 788 786 782 778 777 775 768 768 772 757 734 731 736 732 736 742 735 727 726 723 716 718 730 736 739 745 746 748 753 747 738 734 727 717 706 701 703 699 696 697 694 693 693 691 692 693 693 695 695
795 789 785 787 787 784 782 780 777 774 775 779 783 786 787 788 789 788 788 788 788 788 789 791 791 791 791 792 791 789 790 791 788 787 785 784 788 790 789 790 789 785 780 776 776 772 767 771 765 742 733 742 740 733 733 730 727 729 734 733 727 721 721 728 732 728 734 744 744 742 740 723 702 692 693 696 693 692 692 691 691 688 685 686 687 688 689 691
794 787 785 787 786 784 781 779 778 778 780 783 786 788 790 790 789 789 788 788 788 789 789 790 791 792 793 793 790 790 792 790 786 788 787 785 789 791 790 792 791 787 784 777 772 774 772 770 766 753 744 744 736 724 722 724 722 722 726 728 727 722 723 738 742 726 722 732 734 738 741 718 690 684 688 688 689 688 686 689 689 685 683 682 682 683 684 686
793 789 789 789 787 784 780 780 784 782 783 789 792 793 794 793 792 791 791 790 790 791 790 792 794 794 795 795 792 792 793 790 787 788 788 787 790 791 791 793 792 788 785 780 774 776 779 776 772 765 752 738 727 723 725 725 722 720 719 716 717 717 720 735 745 730 720 724 721 727 737 717 687 681 685 684 685 684 682 684 686 683 681 678 677 678 679 682
794 794 793 791 788 784 780 783 788 787 790 795 795 795 796 795 794 793 794 793 792 793 793 793 796 797 795 797 797 794 793 792 791 790 790 790 790 791 793 794 792 788 785 783 779 780 782 780 777 770 755 739 729 725 724 724 725 726 721 716 719 720 717 722 729 728 726 723 719 731 743 721 689 681 685 683 682 682 681 682 684 684 681 677 676 675 676 679
799 797 795 793 788 782 781 787 791 792 796 797 796 798 798 797 798 797 798 798 795 795 796 796 798 798 797 798 798 796 795 797 795 791 793 794 790 792 794 794 794 791 788 789 789 787 785 780 775 771 764 756 746 738 735 732 729 726 721 722 726 724 724 727 726 731 737 727 717 729 737 715 689 683 686 685 684 684 682 679 680 683 683 680 678 677 678 680
800 796 794 794 791 787 790 794 793 794 799 798 798 800 799 800 803 802 800 802 800 798 798 798 800 799 798 799 798 795 796 800 798 794 796 796 791 792 794 795 796 793 791 795 794 790 789 783 778 775 768 762 759 756 752 745 734 726 727 732 733 729 731 733 730 737 744 733 723 727 724 704 689 688 690 687 686 686 683 679 677 679 680 680 678 679 681 682
800 797 796 795 794 793 797 800 797 796 799 800 801 802 801 802 805 804 803 803 802 801 800 800 801 801 801 801 801 800 799 798 799 799 799 798 794 792 794 796 796 794 795 797 794 791 790 784 781 779 770 763 764 763 758 754 747 740 738 738 736 733 733 733 734 736 734 731 730 725 717 707 697 693 692 688 688 691 689 686 684 682 681 681 680 681 681 681
804 805 806 804 800 797 799 803 802 801 803 804 805 807 805 803 803 804 805 804 804 803 803 802 803 804 805 807 806 805 802 800 801 801 799 798 794 791 793 793 793 794 796 796 791 790 792 786 778 776 771 764 763 761 756 757 756 751 746 743 738 736 736 737 737 731 728 737 736 721 717 719 706 694 693 691 691 696 696 693 692 689 685 683 682 681 681 680
807 809 811 813 811 806 806 807 806 806 807 808 809 810 808 806 806 807 806 806 805 804 804 804 805 806 807 810 809 806 805 804 803 802 801 799 797 795 793 791 790 792 794 792 787 788 795 790 777 774 772 763 760 759 756 756 756 752 749 747 741 738 738 739 736 728 730 741 737 723 725 728 713 699 696 695 696 699 698 695 692 688 685 683 682 682 680 677
811 813 813 813 813 812 813 812 810 809 811 811 812 813 811 809 810 810 808 807 806 806 806 805 806 808 807 809 811 809 808 808 805 804 804 804 802 800 798 795 790 789 791 791 786 787 793 787 777 777 777 767 760 758 755 755 755 751 748 744 740 737 736 735 734 729 729 734 730 725 729 726 713 704 701 699 699 697 694 693 691 688 687 685 684 683 680 677
818 820 819 815 813 815 813 810 810 810 812 814 814 815 815 813 814 814 811 810 808 807 809 808 807 808 808 809 811 809 807 807 807 806 806 807 806 803 801 799 794 791 793 793 789 788 791 787 780 780 781 771 759 753 751 752 753 751 746 740 737 736 734 733 732 729 728 730 727 726 730 726 712 706 707 705 701 697 695 695 693 689 688 687 686 683 680 679
824 825 825 820 817 816 813 810 810 809 811 814 814 817 818 816 817 818 813 811 811 810 811 811 808 808 807 807 809 808 804 805 806 804 803 805 805 802 801 800 797 795 796 795 792 790 790 788 782 782 784 772 756 752 751 747 746 748 744 739 736 735 733 729 726 724 725 728 728 728 730 725 714 711 714 710 704 703 700 697 694 691 688 688 688 685 682 680
827 826 827 823 818 816 813 811 809 808 812 818 819 820 820 816 818 819 813 811 812 812 813 812 810 809 809 807 807 806 804 804 803 801 799 799 797 797 797 795 794 796 796 795 794 792 790 789 784 783 785 773 758 754 753 751 754 750 737 729 728 728 728 723 719 723 727 728 729 729 725 721 718 719 720 715 710 710 706 701 698 695 692 690 688 685 682 680